Simultaneous Nadir Overpasses (SNOs) Predictions

Prediction of SNOs between GOES-15 and METOP-A Satellite Orbit:

Table of predicted SNOs for the next 14.0 days since TLE Epoch: 4/3/2020
Index Date Time (GOES-15) GOES-15 Lat,Lon METOP-A Lat,Lon Distance(km) Time Diff (sec)
1 04/05/2020 05:18:42 -0.24,-127.69 -0.29,-127.79 12.34 80
2 04/07/2020 17:14:14 0.24,-127.65 0.17,-127.41 28.25 80
3 04/10/2020 05:12:34 -0.25,-127.48 -0.18,-127.04 50.35 80
4 04/11/2020 17:34:06 0.26,-127.47 1.15,-131.64 473.46 80
5 04/12/2020 17:10:47 0.25,-127.43 0.05,-126.66 88.69 80
6 04/14/2020 05:32:26 -0.26,-127.30 -1.16,-131.27 452.68 80
7 04/15/2020 05:09:07 -0.24,-127.25 -0.05,-126.29 109.22 80
8 04/16/2020 17:30:38 0.26,-127.23 1.09,-130.87 415.28 80
9 04/17/2020 17:07:19 0.25,-127.19 -0.02,-125.89 146.72 80




NCC Satellite Simultaneous Nadir Overpasses (SNOs) Prediction Service
